• în România
  • Lista ţărilor
  • Pe 7 zile
  • Temperatura apei
  • Hartă satelitară
  • Meteo pe hartă
  • Widget-uri
  • user-avatar
    Intrare

    Meteo pe oră la Kudashevo

    Astăzi, 21 Iulie, Sâmbătă

    Timp Temperatura Precipitaţii Vânt Presiune Umiditate
    00:00 +20°C° 0,2 mm 2 m/s 738 mmHg 91%
    01:00 +20°C° 0,2 mm 2 m/s 738 mmHg 92%
    02:00 +19°C° 0,2 mm 2 m/s 738 mmHg 93%
    03:00 +19°C° 0 mm 2 m/s 738 mmHg 94%
    04:00 +20°C° 0,3 mm 2 m/s 738 mmHg 93%
    05:00 +20°C° 0,3 mm 2 m/s 738 mmHg 93%
    06:00 +20°C° 0,3 mm 2 m/s 738 mmHg 93%
    07:00 +21°C° 0,5 mm 2 m/s 738 mmHg 90%
    08:00 +24°C° 0,5 mm 3 m/s 738 mmHg 87%
    09:00 +25°C° 0,5 mm 3 m/s 738 mmHg 84%
    10:00 +25°C° 1,1 mm 3 m/s 738 mmHg 81%
    11:00 +26°C° 1,1 mm 4 m/s 738 mmHg 77%
    12:00 +27°C° 1,1 mm 4 m/s 738 mmHg 74%
    13:00 +27°C° 0,7 mm 4 m/s 738 mmHg 74%
    14:00 +27°C° 0,7 mm 5 m/s 738 mmHg 73%
    15:00 +28°C° 0,7 mm 5 m/s 738 mmHg 73%
    16:00 +27°C° 0,8 mm 4 m/s 738 mmHg 76%
    17:00 +27°C° 0,8 mm 4 m/s 738 mmHg 79%
    18:00 +26°C° 0,8 mm 4 m/s 738 mmHg 82%
    19:00 +25°C° 0,2 mm 4 m/s 738 mmHg 86%
    20:00 +23°C° 0,2 mm 4 m/s 738 mmHg 89%
    21:00 +22°C° 0,2 mm 3 m/s 738 mmHg 92%
    22:00 +21°C° 0 mm 4 m/s 738 mmHg 93%
    23:00 +21°C° 0 mm 4 m/s 738 mmHg 94%

    Mâine, 22 Iulie, Duminică

    Timp Temperatura Precipitaţii Vânt Presiune Umiditate
    00:00 +20°C° 0 mm 4 m/s 738 mmHg 96%
    01:00 +20°C° 0 mm 4 m/s 738 mmHg 96%
    02:00 +20°C° 0 mm 4 m/s 739 mmHg 97%
    03:00 +20°C° 0 mm 5 m/s 739 mmHg 97%
    04:00 +20°C° 0 mm 5 m/s 739 mmHg 97%
    05:00 +20°C° 0 mm 5 m/s 739 mmHg 96%
    06:00 +20°C° 0 mm 4 m/s 739 mmHg 96%
    07:00 +20°C° 0 mm 5 m/s 739 mmHg 95%
    08:00 +20°C° 0 mm 5 m/s 739 mmHg 94%
    09:00 +20°C° 0 mm 5 m/s 739 mmHg 93%
    10:00 +21°C° 0 mm 5 m/s 739 mmHg 91%
    11:00 +21°C° 0 mm 5 m/s 740 mmHg 90%
    12:00 +21°C° 0 mm 6 m/s 740 mmHg 89%
    13:00 +22°C° 0 mm 6 m/s 740 mmHg 87%
    14:00 +22°C° 0 mm 6 m/s 740 mmHg 86%
    15:00 +22°C° 0 mm 6 m/s 740 mmHg 84%
    16:00 +22°C° 0,1 mm 6 m/s 740 mmHg 86%
    17:00 +21°C° 0,1 mm 5 m/s 740 mmHg 87%
    18:00 +21°C° 0,1 mm 5 m/s 740 mmHg 89%
    19:00 +20°C° 0 mm 5 m/s 740 mmHg 89%
    20:00 +20°C° 0 mm 5 m/s 740 mmHg 90%
    21:00 +19°C° 0 mm 6 m/s 740 mmHg 91%
    22:00 +19°C° 0,1 mm 5 m/s 740 mmHg 91%
    23:00 +19°C° 0,1 mm 5 m/s 740 mmHg 92%

    Poimâine, 23 Iulie, Luni

    Timp Temperatura Precipitaţii Vânt Presiune Umiditate
    00:00 +19°C° 0,1 mm 5 m/s 740 mmHg 92%
    01:00 +19°C° 0 mm 5 m/s 740 mmHg 93%
    02:00 +17°C° 0 mm 5 m/s 740 mmHg 93%
    03:00 +17°C° 0 mm 5 m/s 740 mmHg 94%
    04:00 +17°C° 0,1 mm 5 m/s 740 mmHg 94%
    05:00 +17°C° 0,1 mm 5 m/s 740 mmHg 94%
    06:00 +17°C° 0,1 mm 5 m/s 740 mmHg 94%
    07:00 +17°C° 0,1 mm 5 m/s 740 mmHg 93%
    08:00 +17°C° 0,1 mm 5 m/s 740 mmHg 92%
    09:00 +17°C° 0,1 mm 6 m/s 740 mmHg 91%
    10:00 +19°C° 0,1 mm 6 m/s 740 mmHg 91%
    11:00 +19°C° 0,1 mm 6 m/s 740 mmHg 90%
    12:00 +19°C° 0,1 mm 6 m/s 740 mmHg 90%
    13:00 +19°C° 0 mm 6 m/s 740 mmHg 89%
    14:00 +20°C° 0 mm 6 m/s 740 mmHg 88%
    15:00 +20°C° 0 mm 6 m/s 740 mmHg 88%
    16:00 +20°C° 0 mm 6 m/s 740 mmHg 89%
    17:00 +20°C° 0 mm 5 m/s 740 mmHg 89%
    18:00 +19°C° 0 mm 5 m/s 740 mmHg 90%
    19:00 +19°C° 0,5 mm 5 m/s 740 mmHg 92%
    20:00 +19°C° 0,5 mm 5 m/s 740 mmHg 93%
    21:00 +19°C° 0,5 mm 4 m/s 740 mmHg 95%
    22:00 +19°C° 0,5 mm 4 m/s 741 mmHg 95%
    23:00 +19°C° 0,5 mm 4 m/s 741 mmHg 95%

    24 Iulie, Marţi

    Timp Temperatura Precipitaţii Vânt Presiune Umiditate
    00:00 +20°C° 0,5 mm 4 m/s 741 mmHg 96%
    01:00 +19°C° 0,2 mm 4 m/s 741 mmHg 96%
    02:00 +19°C° 0,2 mm 5 m/s 741 mmHg 96%
    03:00 +19°C° 0,2 mm 5 m/s 741 mmHg 96%
    04:00 +17°C° 0,6 mm 5 m/s 741 mmHg 96%
    05:00 +17°C° 0,6 mm 5 m/s 741 mmHg 95%
    06:00 +17°C° 0,6 mm 5 m/s 741 mmHg 95%
    07:00 +19°C° 0,2 mm 5 m/s 741 mmHg 94%
    08:00 +19°C° 0,2 mm 5 m/s 742 mmHg 92%
    09:00 +20°C° 0,2 mm 5 m/s 742 mmHg 91%
    10:00 +21°C° 0,2 mm 5 m/s 742 mmHg 88%
    11:00 +23°C° 0,2 mm 5 m/s 742 mmHg 85%
    12:00 +25°C° 0,2 mm 5 m/s 742 mmHg 83%
    13:00 +25°C° 0,9 mm 5 m/s 743 mmHg 81%
    14:00 +26°C° 0,9 mm 5 m/s 743 mmHg 80%
    15:00 +26°C° 0,9 mm 5 m/s 743 mmHg 79%
    16:00 +26°C° 0,3 mm 5 m/s 743 mmHg 80%
    17:00 +26°C° 0,3 mm 4 m/s 743 mmHg 82%
    18:00 +25°C° 0,3 mm 4 m/s 743 mmHg 83%
    19:00 +23°C° 0 mm 4 m/s 744 mmHg 85%
    20:00 +22°C° 0 mm 4 m/s 744 mmHg 87%
    21:00 +21°C° 0 mm 4 m/s 744 mmHg 89%
    22:00 +21°C° 0,1 mm 4 m/s 744 mmHg 90%
    23:00 +20°C° 0,1 mm 4 m/s 745 mmHg 90%

    25 Iulie, Miercuri

    Timp Temperatura Precipitaţii Vânt Presiune Umiditate
    00:00 +20°C° 0,1 mm 4 m/s 745 mmHg 90%
    01:00 +20°C° 0,2 mm 4 m/s 745 mmHg 90%
    02:00 +19°C° 0,2 mm 4 m/s 745 mmHg 90%
    03:00 +19°C° 0,2 mm 4 m/s 745 mmHg 90%
    04:00 +19°C° 0 mm 4 m/s 745 mmHg 89%
    05:00 +18°C° 0 mm 4 m/s 745 mmHg 87%
    06:00 +18°C° 0 mm 4 m/s 746 mmHg 86%
    07:00 +19°C° 0 mm 5 m/s 746 mmHg 82%
    08:00 +21°C° 0 mm 5 m/s 746 mmHg 77%
    09:00 +22°C° 0 mm 6 m/s 746 mmHg 73%
    10:00 +23°C° 0 mm 6 m/s 746 mmHg 69%
    11:00 +24°C° 0 mm 7 m/s 746 mmHg 66%
    12:00 +26°C° 0 mm 7 m/s 746 mmHg 63%
    13:00 +26°C° 0 mm 7 m/s 746 mmHg 62%
    14:00 +26°C° 0 mm 8 m/s 746 mmHg 61%
    15:00 +26°C° 0 mm 8 m/s 746 mmHg 61%
    16:00 +24°C° 0 mm 7 m/s 746 mmHg 64%
    17:00 +23°C° 0 mm 6 m/s 747 mmHg 68%
    18:00 +22°C° 0 mm 4 m/s 747 mmHg 71%
    19:00 +21°C° 0 mm 4 m/s 747 mmHg 73%
    20:00 +21°C° 0 mm 3 m/s 747 mmHg 75%
    21:00 +20°C° 0 mm 3 m/s 747 mmHg 76%
    22:00 +19°C° 0 mm 3 m/s 747 mmHg 79%
    23:00 +19°C° 0 mm 3 m/s 747 mmHg 82%

    26 Iulie, Joi

    Timp Temperatura Precipitaţii Vânt Presiune Umiditate
    00:00 +18°C° 0 mm 3 m/s 748 mmHg 84%
    01:00 +18°C° 0 mm 3 m/s 748 mmHg 85%
    02:00 +18°C° 0 mm 3 m/s 748 mmHg 86%
    03:00 +18°C° 0 mm 4 m/s 748 mmHg 86%
    04:00 +18°C° 0 mm 4 m/s 748 mmHg 86%
    05:00 +18°C° 0 mm 4 m/s 748 mmHg 85%
    06:00 +18°C° 0 mm 4 m/s 749 mmHg 84%
    07:00 +19°C° 0 mm 4 m/s 749 mmHg 79%
    08:00 +21°C° 0 mm 5 m/s 749 mmHg 73%
    09:00 +23°C° 0 mm 5 m/s 749 mmHg 68%
    10:00 +24°C° 0 mm 6 m/s 749 mmHg 65%
    11:00 +26°C° 0 mm 6 m/s 749 mmHg 63%
    12:00 +27°C° 0 mm 6 m/s 749 mmHg 60%
    13:00 +28°C° 0 mm 6 m/s 749 mmHg 60%
    14:00 +28°C° 0 mm 6 m/s 749 mmHg 59%
    15:00 +29°C° 0 mm 6 m/s 749 mmHg 59%
    16:00 +28°C° 0,1 mm 5 m/s 749 mmHg 64%
    17:00 +28°C° 0,1 mm 4 m/s 749 mmHg 68%
    18:00 +27°C° 0,1 mm 3 m/s 749 mmHg 73%
    19:00 +26°C° 0,1 mm 3 m/s 749 mmHg 76%
    20:00 +24°C° 0,1 mm 3 m/s 749 mmHg 79%
    21:00 +22°C° 0,1 mm 3 m/s 749 mmHg 82%
    22:00 +21°C° 0 mm 3 m/s 749 mmHg 83%
    23:00 +20°C° 0 mm 3 m/s 749 mmHg 84%
    Arată mai mult